Vertical_Velocity
-2 -1 0 -0 -2 -3 -1 -1 2 -1 -1 0 -0 -1 -0 0 0 2 -3 4 1 -0 -0 1 2 1 1 1 -0 -1 -2 0 -1 -0 -1 -0 -0 -0 -0 -1 -1 -1 -1 -1 1
-2 -4 -0 -2 1 0 1 -2 -1 1 -1 -1 -1 0 -1 -0 -0 2 4 -0 2 1 1 -1 1 2 1 -1 -0 0 0 -4 -0 1 1 0 -0 -0 -0 -1 -1 0 -3 -2 -0
-0 -3 -1 -0 -1 -0 1 -1 -2 1 -0 1 0 -1 -1 -1 -2 2 -1 1 1 1 1 0 0 2 3 2 -1 1 4 -2 -1 -1 -1 -1 -1 -0 -1 0 -1 1 -1 0 -1
-1 -2 -0 -2 -0 -1 1 -0 -1 -3 -0 -1 0 -1 -3 -0 -4 11 1 0 0 1 2 1 -1 1 2 4 1 -1 1 -4 2 3 -0 -0 2 -2 1 -3 3 -4 5 -3 -0
0 2 -2 -5 -2 -2 2 -1 2 1 -0 -0 -2 1 -5 -9 19 -3 0 0 1 0 1 1 1 -2 3 4 -2 2 4 -4 0 3 -2 0 -0 -1 3 -3 -0 -0 -5 5 -5
4 -0 -1 0 -4 -4 1 -1 -1 1 1 -0 -4 -4 -7 -8 -3 -5 7 1 -0 1 -1 1 3 -1 -1 2 1 1 -4 -1 3 3 -1 0 0 -4 3 -4 -1 2 -2 -3 1
1 2 1 1 -2 -2 -1 -1 1 2 1 -0 1 -8 -19 33 -5 2 -4 4 -1 2 2 1 -0 -1 6 -3 1 0 2 -2 4 0 1 -0 2 3 -2 -1 2 -1 3 0 -1
-4 -2 -1 -1 1 -2 -2 -0 4 1 1 2 1 -6 -29 14 -4 2 0 -2 5 -4 3 1 0 2 2 -5 4 2 -3 -3 6 -2 -2 0 12 -1 2 -3 -1 -1 1 1 -3
-6 -5 -3 -1 -1 -1 -3 -2 3 2 0 4 -4 -8 -16 15 -11 16 -2 2 -0 -0 -2 0 -2 3 -4 1 -2 -4 5 -0 -7 2 -6 -2 6 -4 -1 5 -3 1 0 1 0
1 -6 -6 -4 -2 -5 -1 -2 4 2 4 5 2 26 -13 19 19 -0 5 -2 5 -2 -3 -7 -0 2 -4 -6 7 9 7 -1 -4 2 -5 0 5 -5 4 -1 2 -0 -0 0 -1
11 1 1 -8 -7 -7 1 3 8 -1 7 -9 8 -6 -3 6 2 9 3 3 1 -8 -5 9 -14 -6 11 4 5 -0 -1 -4 -1 -10 1 2 -2 1 -2 2 3 -1 -1 -0 1
-4 -2 3 -1 -4 -8 -2 4 9 -8 -4 -13 -9 -13 -6 -10 -6 3 -0 -13 -10 0 9 -11 -18 8 5 -2 -0 2 -3 1 0 -2 -2 0 1 3 0 1 -2 -1 2 -0 -1
-3 -4 -4 -4 0 1 0 11 5 1 -10 1 -0 -4 15 -6 9 1 -7 12 -4 7 1 -8 20 8 -2 -2 -3 -4 2 2 2 -2 -9 1 -1 5 -5 6 1 -1 -2 -1 1
-2 0 1 1 6 -2 2 6 5 9 -1 -5 -17 -23 -21 11 -25 8 3 11 -7 -7 9 3 11 -1 -4 -3 1 -1 4 1 -1 -4 -1 -8 -14 1 4 2 2 -5 -3 -1 2
-3 -1 2 1 5 7 6 2 14 17 0 -4 -1 11 31 -28 58 -9 13 -10 -11 4 -5 13 6 -3 -4 11 -2 9 -1 -4 -4 -8 -9 7 -24 11 3 4 -7 -4 -0 -1 -1
-3 -2 -0 -4 7 -1 3 7 9 15 -0 -12 -4 -12 -0 -4 -2 7 2 6 28 7 -3 -0 3 -9 5 1 -0 14 -5 -1 0 -0 -22 12 -11 4 1 1 3 0 -5 -5 0
-3 -2 -1 -3 7 6 3 -3 16 -2 -3 -7 -6 -4 -2 15 19 -1 -3 -5 -22 -19 -23 9 -0 3 -7 1 2 -1 -2 -1 -8 -14 -5 12 -22 7 -2 3 -4 0 -3 -6 11
-1 -0 -1 3 1 2 5 2 -6 -5 2 3 -5 4 -10 23 -1 8 12 7 -6 -11 12 1 -27 -4 3 3 13 2 8 -1 2 -3 17 -7 -19 -5 3 3 -4 -5 -3 -1 -0
-3 -1 5 3 1 4 -1 -14 -22 11 3 -3 -10 37 -8 9 12 13 -2 -5 20 3 -18 -2 -15 6 2 16 1 16 -37 49 -10 1 -10 -3 -6 -3 -0 9 -7 9 -5 -0 -2
-2 -2 4 -5 4 6 -4 -6 -4 13 10 -2 3 7 7 -9 3 -4 14 7 1 -4 15 0 -7 -1 8 2 -6 -9 26 -9 -4 -8 -8 -0 -1 -7 -1 -0 -2 1 4 -1 -3
-4 0 -1 3 2 -0 -10 3 10 13 11 0 12 -4 7 35 7 -20 2 30 19 15 8 19 0 0 -14 -15 23 3 -12 2 5 -13 -7 -0 -6 1 4 -12 1 3 -0 -2 -2
-1 -2 -3 4 -0 4 -8 12 20 15 12 9 -5 -3 34 8 10 27 -12 11 16 15 -21 18 16 -11 5 18 8 0 -3 -7 -15 3 -2 -3 -6 -8 4 0 -0 2 -5 -5 2
-1 -3 -6 3 -3 35 10 2 -2 3 2 2 6 -9 5 0 5 -6 -4 12 11 3 -21 8 -9 -8 8 -14 -6 -17 9 8 3 -5 -10 -11 -5 13 6 -4 1 1 -10 -1 -0
-1 -3 -4 0 1 -0 9 13 3 3 1 2 5 3 8 -5 2 21 -9 17 18 -8 14 4 10 -4 -23 30 14 3 7 7 2 -40 56 -21 10 -4 4 -1 -1 -2 -8 2 -5
-2 -3 -2 -1 6 -0 2 6 29 -0 -5 1 -1 -16 -6 5 -11 -14 19 -1 6 18 0 6 -8 -0 9 6 -0 3 -0 -3 -26 21 -32 38 -9 -0 0 -8 -6 -2 1 -10 7
-2 -3 -2 0 0 -4 -2 10 -2 12 3 5 -5 4 10 5 -5 -0 -7 -5 8 12 7 -16 -8 -1 -2 3 3 -10 -8 -2 -7 -1 -12 3 -6 0 2 0 -0 -3 -0 -3 -6
3 4 -2 6 -0 -3 7 5 6 5 3 -15 5 4 -14 -5 34 12 -0 -9 -9 8 10 4 9 -6 -5 8 14 -58 12 -0 1 -1 13 -18 30 -1 -3 -3 -2 -2 -3 0 2
Height
5757 5757 5758 5760 5761 5763 5765 5768 5772 5776 5780 5784 5788 5792 5795 5799 5804 5809 5814 5819 5821 5824 5827 5830 5832 5835 5837 5838 5840 5841 5842 5843 5845 5845 5846 5847 5847 5848 5849 5849 5850 5851 5852 5854 5855
5748 5746 5747 5748 5750 5752 5755 5758 5761 5766 5769 5774 5777 5782 5786 5790 5796 5800 5806 5810 5814 5817 5821 5824 5826 5829 5832 5834 5836 5838 5839 5839 5841 5844 5845 5846 5847 5848 5849 5849 5849 5850 5851 5852 5853
5735 5736 5736 5736 5737 5740 5743 5747 5751 5755 5759 5763 5767 5771 5776 5781 5786 5791 5796 5801 5806 5809 5813 5817 5820 5823 5826 5829 5831 5833 5836 5836 5838 5840 5842 5843 5844 5845 5846 5847 5847 5849 5849 5850 5851
5719 5721 5723 5724 5726 5727 5731 5734 5739 5744 5748 5753 5755 5759 5765 5771 5778 5784 5789 5792 5797 5801 5806 5809 5813 5817 5820 5823 5824 5827 5829 5830 5834 5837 5838 5840 5842 5842 5844 5843 5845 5845 5848 5847 5849
5701 5704 5707 5710 5713 5716 5718 5722 5726 5730 5736 5742 5745 5749 5753 5759 5772 5773 5778 5783 5788 5792 5797 5800 5804 5808 5812 5816 5817 5821 5824 5825 5828 5831 5833 5835 5837 5838 5840 5839 5842 5843 5844 5846 5845
5685 5687 5690 5693 5697 5702 5706 5709 5714 5718 5722 5728 5733 5737 5740 5749 5761 5760 5770 5774 5779 5784 5788 5792 5796 5799 5803 5807 5811 5815 5816 5819 5823 5826 5827 5829 5831 5833 5836 5835 5838 5840 5840 5841 5843
5669 5671 5674 5677 5681 5686 5692 5697 5701 5705 5710 5714 5720 5723 5727 5744 5747 5753 5757 5764 5769 5774 5778 5782 5786 5790 5796 5798 5802 5807 5811 5812 5817 5819 5820 5823 5826 5829 5827 5831 5834 5834 5837 5837 5838
5653 5654 5656 5660 5665 5669 5676 5683 5688 5692 5697 5702 5706 5708 5715 5733 5735 5744 5747 5753 5759 5764 5768 5772 5776 5782 5785 5789 5796 5799 5802 5806 5811 5811 5813 5817 5824 5821 5823 5824 5828 5830 5831 5833 5833
5635 5637 5639 5642 5647 5652 5659 5667 5674 5677 5683 5689 5692 5696 5703 5721 5727 5734 5735 5742 5748 5752 5758 5763 5766 5773 5775 5781 5786 5788 5795 5798 5799 5805 5806 5809 5815 5813 5818 5819 5822 5824 5825 5826 5827
5615 5616 5620 5624 5629 5635 5643 5651 5658 5661 5667 5672 5679 5678 5691 5715 5717 5721 5726 5731 5737 5742 5747 5753 5756 5763 5767 5771 5778 5786 5788 5788 5792 5797 5798 5802 5806 5807 5810 5813 5816 5818 5819 5820 5822
5599 5599 5599 5600 5609 5616 5627 5635 5643 5643 5645 5652 5664 5672 5684 5690 5699 5710 5712 5718 5724 5730 5736 5742 5746 5754 5763 5768 5773 5773 5775 5780 5781 5783 5789 5793 5797 5801 5803 5807 5809 5811 5812 5813 5814
5580 5579 5580 5585 5590 5595 5607 5613 5617 5619 5626 5634 5646 5658 5669 5668 5686 5698 5702 5708 5713 5721 5727 5731 5736 5749 5753 5756 5761 5763 5765 5771 5775 5776 5777 5782 5786 5791 5796 5798 5801 5804 5804 5804 5805
5569 5567 5568 5570 5573 5576 5584 5590 5598 5603 5607 5621 5634 5647 5660 5658 5675 5684 5690 5699 5705 5710 5718 5722 5734 5738 5742 5747 5751 5754 5758 5764 5769 5767 5765 5771 5776 5783 5785 5791 5794 5793 5794 5796 5797
5556 5553 5553 5554 5559 5562 5568 5573 5582 5590 5590 5605 5617 5634 5642 5649 5658 5674 5682 5689 5689 5699 5708 5710 5719 5726 5731 5736 5740 5745 5753 5756 5757 5756 5758 5762 5764 5772 5778 5782 5785 5784 5784 5786 5787
5542 5539 5538 5539 5543 5547 5553 5559 5572 5581 5574 5590 5606 5625 5634 5636 5660 5663 5673 5672 5679 5689 5692 5702 5708 5713 5720 5728 5735 5740 5742 5744 5746 5748 5752 5756 5751 5762 5770 5773 5775 5773 5776 5774 5776
5526 5524 5524 5525 5527 5531 5538 5546 5556 5564 5556 5577 5591 5606 5617 5631 5640 5653 5653 5662 5676 5677 5684 5693 5700 5706 5714 5719 5724 5729 5731 5733 5736 5739 5741 5747 5748 5749 5758 5760 5765 5766 5767 5766 5766
5513 5510 5512 5512 5517 5519 5524 5531 5538 5536 5555 5570 5584 5597 5610 5622 5629 5634 5640 5647 5652 5662 5673 5682 5686 5696 5699 5708 5715 5716 5720 5727 5729 5730 5733 5740 5740 5740 5744 5750 5752 5756 5755 5757 5758
5500 5498 5499 5503 5504 5506 5512 5518 5520 5535 5547 5566 5580 5589 5593 5608 5612 5621 5629 5637 5645 5657 5668 5673 5678 5686 5693 5702 5708 5711 5718 5722 5720 5723 5728 5726 5728 5732 5736 5740 5744 5746 5748 5747 5747
5487 5485 5486 5489 5492 5495 5497 5499 5513 5530 5542 5557 5570 5577 5585 5590 5603 5610 5618 5630 5642 5649 5656 5663 5671 5679 5686 5694 5697 5701 5705 5717 5713 5715 5713 5716 5720 5724 5731 5733 5732 5737 5738 5737 5738
5475 5471 5474 5473 5478 5483 5484 5491 5506 5519 5533 5544 5553 5562 5574 5582 5589 5595 5606 5622 5632 5641 5652 5657 5663 5668 5676 5682 5687 5691 5699 5699 5700 5702 5705 5710 5715 5716 5718 5721 5725 5725 5728 5728 5728
5463 5462 5461 5463 5466 5471 5473 5481 5494 5508 5517 5528 5541 5554 5563 5571 5582 5589 5605 5618 5625 5633 5639 5649 5653 5658 5660 5670 5679 5683 5683 5691 5696 5697 5700 5702 5704 5708 5710 5708 5712 5715 5719 5719 5718
5456 5456 5457 5460 5463 5467 5470 5480 5486 5494 5503 5518 5529 5541 5554 5563 5570 5579 5593 5607 5617 5625 5627 5641 5645 5648 5654 5664 5670 5673 5679 5680 5682 5688 5689 5692 5698 5701 5701 5700 5703 5707 5710 5711 5710
5449 5450 5452 5453 5457 5463 5467 5468 5473 5480 5489 5502 5521 5533 5546 5560 5562 5570 5585 5600 5606 5610 5621 5632 5632 5639 5645 5650 5659 5663 5667 5668 5672 5679 5682 5684 5691 5693 5695 5693 5696 5697 5700 5701 5701
5444 5444 5447 5449 5452 5454 5455 5461 5466 5471 5479 5492 5511 5522 5534 5545 5554 5563 5577 5587 5593 5601 5614 5618 5624 5631 5637 5648 5651 5657 5661 5665 5667 5669 5677 5677 5684 5682 5685 5687 5686 5688 5690 5691 5692
5437 5439 5441 5443 5445 5447 5447 5451 5459 5463 5470 5481 5494 5510 5523 5535 5546 5560 5570 5574 5584 5594 5600 5605 5613 5624 5630 5633 5636 5644 5649 5653 5655 5664 5664 5676 5672 5680 5677 5676 5678 5679 5679 5677 5684
5430 5432 5434 5436 5437 5438 5439 5445 5449 5455 5459 5471 5487 5504 5510 5523 5538 5548 5554 5565 5577 5585 5590 5597 5610 5614 5616 5624 5629 5630 5638 5647 5649 5652 5655 5660 5667 5671 5671 5671 5670 5670 5672 5673 5673
5422 5423 5423 5428 5429 5430 5435 5437 5443 5445 5450 5459 5476 5482 5492 5518 5532 5539 5546 5555 5560 5569 5578 5589 5599 5604 5610 5617 5623 5623 5632 5637 5641 5643 5650 5653 5663 5659 5661 5662 5662 5664 5664 5665 5665